Location: Borz?cin
(51.1714°N, 19.6030°E)
Time: 22:34:57
(UTC+00:00)

Okean 3 Rocket - Pass Details

Date: 19 May 2025
Orbit: 610 x 638 km, 82.5° (Epoch: 16 June)

Event Time Altitude Azimuth Distance (km) Brightness Sun altitude
Rises 21:51:00 0° 346° (NNW) 2,900 8.7 -18.1°
Reaches altitude 10° 21:53:15 10° 342° (NNW) 1,993 7.4 -18.2°
Maximum altitude 21:57:34 57° 265° (W) 737 3.9 -18.3°
Enters shadow 21:59:13 34° 203° (SSW) 1,022 4.2 -18.3°
